Location: Newark
(51.3318°N, 0.0053°E)
Time: 10:46:43
(UTC+00:00)

ITUPSAT 1 - Visible Passes

Search period start: 30 June 2022 00:00
Search period end: 10 July 2022 00:00
Orbit: 700 x 712 km, 98.6° (Epoch: 29 June)

Date Brightness Start Highest point End Pass type
(mag) Time Alt. Az. Time Alt. Az. Time Alt. Az.
30 Jun ? 21:46:56 10° N 21:50:59 28° WNW 21:55:03 10° WSW visible
01 Jul ? 22:31:52 10° NNW 22:34:20 14° NW 22:36:49 10° W visible
02 Jul ? 21:36:43 10° N 21:41:00 33° WNW 21:45:17 10° SW visible
03 Jul ? 22:21:25 10° NNW 22:24:25 17° NW 22:27:24 10° W visible
04 Jul ? 21:26:32 10° N 21:31:00 40° WNW 21:35:28 10° SW visible
05 Jul ? 22:11:04 10° N 22:14:28 20° WNW 22:17:52 10° WSW visible
06 Jul ? 21:16:22 10° N 21:20:59 48° WNW 21:25:35 10° SW visible
07 Jul ? 22:00:46 10° N 22:04:31 23° WNW 22:08:15 10° WSW visible
08 Jul ? 21:06:13 10° N 21:10:57 59° WNW 21:15:40 10° SSW visible
08 Jul ? 22:46:10 10° NNW 22:47:47 12° NW 22:49:24 10° WNW visible
09 Jul ? 21:50:30 10° N 21:54:32 27° WNW 21:58:33 10° WSW visible
